STARLINK-4676, 53598

Orbit data source: Space-Track

STARLINK-4676, 53598 is a payload satellite owned by SpaceX/Seattle (US) in LEO that was launched on Sun, 28 Aug 2022 UTC via an FALCON 9 launch vehicle from the Air Force Eastern Test Range (AFETR). Payload-class satellites include a variety of spacecraft equipped with specific instruments for various scientific and technological missions. These include communications satellites like Starlink; space stations such as the ISS; scientific satellites like the Hubble; Earth observation satellites from companies like Planet Labs, Umbra, and HawkEye 360; GPS; miniature CubeSats for education and research; and military/defense satellites.

Loading next visibility...
Identifier
53598, 2022-104L
Orbit
LEO
Country
Flag of USUS
Related business
Manufacturer
SpaceX/Seattle
Mission
Operational Commercial Communications
Bus & Motor
STARLINK, Unknown motor
Mass
300 kg wet, ~290 kg dry
Launch date (UTC)
2022-08-28 (3 years ago)
Launch vehicle
FALCON 9
Launch site
Air Force Eastern Test Range (AFETR)
Object type
Payload
Rocket body
Debris
Shape & HBR
Box + 1 Pan, 10.1 m
Radar Cross Section
13.562 m², Large (>1 m²)

Expand to show TLE details & history
Last TLE update: 1 day ago

TLE from 1 day ago
0 STARLINK-4676
1 53598U 22104L   26036.00080316 -.00002334  00000-0 -12860-3 0  9998
2 53598  53.2181  30.6047 0001342  71.0545 289.0592 15.08847403190683
Epoch: 2026-02-05T00:01Z
TLE epoch observation values (Epoch: 2026-02-05T00:01:09.393Z)
Latitude
-0.00004°
Longitude
-104.84378°
Altitude
540.315 km
Speed
7.594 km/s
True Right ascension
02h 02m 25s
True Declination
0° 00' 00"
Sunlit
Object was in daylight at epoch
Visualization orbit readout
Latitude
Unknown
Longitude
Unknown
Altitude
Unknown
Speed
Unknown
Apparent Right ascension
Unknown
Apparent Declination
Unknown
Sunlit
N/A
Visualization observer readout
Local Sidereal Time
09:05:10
Azimuth
Unknown
Elevation
Unknown
Doppler factor
Unknown
Orbital elements
Apogee altitude
540.894 km
Perigee altitude
539.037 km
Semi-major axis
6,918.103 km
Eccentricity
0.00013
Inclination
53.2181°
RAAN
30.6047°
Arg. of periapsis
71.0545°
True anomaly
289.04466°
Mean anomaly
289.0592°
Eccentric anomaly
289.05193°
Mean motion
3.77192 °/min
Orbital period
95.44 mins
BSTAR
-0.0001286
Loading maneuver chart data...
Computing Atmospheric mass density...
Loading historical data...
Loading historical data...
Loading historical data...
Loading historical data...
Loading historical data...
Loading historical data...
Loading historical data...

Documentation

Showing up to 5 results
|